Regional Weather Roundup
Issued by NWS Goodland, KS

Home | Current Version | Previous Version | Text Only | Print | Product List | Glossary Off
Versions: 1 2 3 4 5 6 7 8 9 10 11 12 13 14 15 16 17 18 19 20 21 22 23 24 25 26 27 28 29 30 31 32 33 34 35 36 37 38 39 40 41 42 43 44 45 46 47 48 49 50

000
ASUS43 KGLD 251808
RWRGLD

GOODLAND FORECAST AREA HOURLY WEATHER ROUNDUP
NATIONAL WEATHER SERVICE GOODLAND KS
1200 PM MDT MON MAY 25 2015

...OFFICIAL OBSERVATIONS...

CITY           SKY/WX    TMP DP  RH WIND       PRES   REMARKS
GOODLAND KS    MOSUNNY   66  49  54 NW13      29.88R
HILL CITY KS   MOSUNNY   72  56  57 SW8       29.83R
IMPERIAL NEB   PTSUNNY   63  51  65 W10       29.82S
MCCOOK NEB     MOSUNNY   69  52  54 VRB6      29.82R
AKRON CO       PTSUNNY   56  46  69 NW17      29.89S
BURLINGTON CO  PTSUNNY   63  46  54 W6        29.90R
LIMON CO       PTSUNNY   59  43  55 N12       29.92S
$$

...UNOFFICIAL OBSERVATIONS...

CITY           SKY/WX    TMP DP  RH WIND       PRES   REMARKS
COLBY KS       MOSUNNY   70  55  60 W10       29.86S
GOVE KS          N/A     71  32  23 MISG        N/A
LENORA KS        N/A     68  32  26 MISG        N/A
NORTON KS      MOSUNNY   70  52  52 SW6       29.82
SHARON SPRINGS   N/A     68  51  53 MISG        N/A
KIT CARSON CO    N/A     64  47  55 MISG        N/A
YUMA CO          N/A     66  53  63 CALM        N/A
$$


USA.gov is the U.S. government's official web portal to all federal, state and local government web resources and services.